Time,TemperatureF,DewpointF,PressureIn,WindDirection,WindDirectionDegrees,WindSpeedMPH,WindSpeedGustMPH,Humidity,HourlyPrecipIn,Conditions,Clouds,dailyrainin,SolarRadiationWatts/m^2,SoftwareType,DateUTC
2013-01-20 00:01:00,48.9,47.8,30.25,South,172,10.4,10.4,96,0.00,CLR,,0.00,2.0,WeatherDisplay:10.37,2013-01-20 06:01:00,
2013-01-20 00:06:00,48.7,47.3,30.25,South,174,9.2,9.2,95,0.00,CLR,,0.00,2.0,WeatherDisplay:10.37,2013-01-20 06:06:00,
2013-01-20 00:11:00,48.6,47.5,30.25,South,173,8.1,8.1,96,0.00,CLR,,0.00,1.0,WeatherDisplay:10.37,2013-01-20 06:11:00,
2013-01-20 00:17:00,48.5,47.4,30.25,SSE,162,5.8,5.8,96,0.00,CLR,,0.00,1.0,WeatherDisplay:10.37,2013-01-20 06:17:00,
2013-01-20 00:22:00,48.3,47.5,30.25,SSE,164,5.8,5.8,97,0.00,CLR,,0.00,1.0,WeatherDisplay:10.37,2013-01-20 06:22:00,
2013-01-20 00:27:00,48.1,47.3,30.25,SSE,160,6.9,6.9,97,0.00,CLR,,0.00,1.0,WeatherDisplay:10.37,2013-01-20 06:27:00,
2013-01-20 00:33:00,48.2,47.7,30.25,SSE,156,7.5,7.5,98,0.00,CLR,,0.00,2.0,WeatherDisplay:10.37,2013-01-20 06:33:00,
2013-01-20 00:38:00,48.0,47.2,30.25,South,172,8.1,8.1,97,0.00,CLR,,0.00,2.0,WeatherDisplay:10.37,2013-01-20 06:38:00,
2013-01-20 00:43:00,47.8,47.3,30.25,SSE,167,8.7,8.7,98,0.00,CLR,,0.00,1.0,WeatherDisplay:10.37,2013-01-20 06:43:00,
2013-01-20 00:48:00,47.4,47.1,30.25,SSE,160,8.1,8.1,99,0.00,CLR,,0.00,2.0,WeatherDisplay:10.37,2013-01-20 06:48:00,
2013-01-20 00:54:00,47.3,47.3,30.25,SSE,162,8.1,8.1,100,0.00,CLR,,0.00,1.0,WeatherDisplay:10.37,2013-01-20 06:54:00,
2013-01-20 00:59:00,47.0,47.0,30.25,SSE,157,8.1,8.1,100,0.00,CLR,,0.00,1.0,WeatherDisplay:10.37,2013-01-20 06:59:00,
2013-01-20 01:04:00,46.8,46.8,30.25,SSE,160,8.1,8.1,100,0.00,CLR,,0.00,2.0,WeatherDisplay:10.37,2013-01-20 07:04:00,
2013-01-20 01:09:00,46.7,46.7,30.25,SE,144,6.9,6.9,100,0.00,CLR,,0.00,1.0,WeatherDisplay:10.37,2013-01-20 07:09:00,
2013-01-20 01:15:00,46.6,46.6,30.25,SSE,157,5.0,7.0,100,0.00,CLR,,0.00,0.0,WeatherDisplay:10.37,2013-01-20 07:15:00,
2013-01-20 01:20:00,46.5,46.5,30.25,SSE,161,6.9,6.9,100,0.00,CLR,,0.00,1.0,WeatherDisplay:10.37,2013-01-20 07:20:00,
2013-01-20 01:25:00,46.4,46.4,30.24,SSE,160,7.0,8.0,100,0.00,CLR,,0.00,0.0,WeatherDisplay:10.37,2013-01-20 07:25:00,
2013-01-20 01:30:00,46.5,46.5,30.24,SSE,164,7.0,8.0,100,0.00,CLR,,0.00,0.0,WeatherDisplay:10.37,2013-01-20 07:30:00,
2013-01-20 01:35:00,46.4,46.4,30.24,SSE,164,7.0,7.0,100,0.00,CLR,,0.00,0.0,WeatherDisplay:10.37,2013-01-20 07:35:00,
2013-01-20 01:40:00,46.5,46.5,30.24,SSE,165,8.0,9.0,100,0.00,CLR,,0.00,0.0,WeatherDisplay:10.37,2013-01-20 07:40:00,
2013-01-20 01:45:00,46.4,46.4,30.24,SSE,166,7.0,9.0,100,0.00,CLR,,0.00,0.0,WeatherDisplay:10.37,2013-01-20 07:45:00,
2013-01-20 01:50:00,46.0,46.0,30.24,SSE,162,7.0,8.0,100,0.00,CLR,,0.00,0.0,WeatherDisplay:10.37,2013-01-20 07:50:00,
2013-01-20 01:55:00,46.0,46.0,30.24,SSE,159,7.0,8.0,100,0.00,CLR,,0.00,0.0,WeatherDisplay:10.37,2013-01-20 07:55:00,
2013-01-20 02:00:00,45.8,45.8,30.24,SSE,157,6.0,8.0,100,0.00,CLR,,0.00,0.0,WeatherDisplay:10.37,2013-01-20 08:00:00,
2013-01-20 02:05:00,45.6,45.6,30.24,SSE,154,8.1,8.1,100,0.00,CLR,,0.00,2.0,WeatherDisplay:10.37,2013-01-20 08:05:00,
2013-01-20 02:10:00,45.8,45.8,30.24,SSE,154,8.0,9.0,100,0.00,CLR,,0.00,0.0,WeatherDisplay:10.37,2013-01-20 08:10:00,
2013-01-20 02:15:00,45.7,45.7,30.24,SSE,153,7.0,9.0,100,0.00,CLR,,0.00,0.0,WeatherDisplay:10.37,2013-01-20 08:15:00,
2013-01-20 02:20:00,45.8,45.8,30.24,SSE,152,7.0,8.0,100,0.00,CLR,,0.00,0.0,WeatherDisplay:10.37,2013-01-20 08:20:00,
2013-01-20 02:25:00,45.5,45.5,30.24,SE,146,7.0,8.0,100,0.00,CLR,,0.00,0.0,WeatherDisplay:10.37,2013-01-20 08:25:00,
2013-01-20 02:30:00,45.0,45.0,30.24,SE,144,5.8,5.8,100,0.00,CLR,,0.00,2.0,WeatherDisplay:10.37,2013-01-20 08:30:00,
2013-01-20 02:35:00,44.9,44.9,30.24,SE,141,6.0,7.0,100,0.00,CLR,,0.00,0.0,WeatherDisplay:10.37,2013-01-20 08:35:00,
2013-01-20 02:40:00,44.9,44.9,30.24,SE,142,7.0,7.0,100,0.00,CLR,,0.00,0.0,WeatherDisplay:10.37,2013-01-20 08:40:00,
2013-01-20 02:45:00,44.8,44.8,30.24,SE,143,7.0,8.0,100,0.00,CLR,,0.00,0.0,WeatherDisplay:10.37,2013-01-20 08:45:00,
2013-01-20 02:50:00,44.6,44.6,30.24,SE,142,6.0,8.0,100,0.00,CLR,,0.00,0.0,WeatherDisplay:10.37,2013-01-20 08:50:00,
2013-01-20 02:55:00,44.2,44.2,30.24,SE,139,6.0,6.0,100,0.00,CLR,,0.00,0.0,WeatherDisplay:10.37,2013-01-20 08:55:00,
2013-01-20 03:00:00,44.5,44.5,30.24,SSE,147,6.9,6.9,100,0.00,CLR,,0.00,1.0,WeatherDisplay:10.37,2013-01-20 09:00:00,
2013-01-20 03:05:00,44.6,44.6,30.24,SSE,148,7.0,8.0,100,0.00,CLR,,0.00,0.0,WeatherDisplay:10.37,2013-01-20 09:05:00,
2013-01-20 03:10:00,44.5,44.5,30.24,SSE,149,7.0,8.0,100,0.00,CLR,,0.00,0.0,WeatherDisplay:10.37,2013-01-20 09:10:00,
2013-01-20 03:15:00,44.1,44.1,30.23,SSE,147,7.0,8.0,100,0.00,CLR,,0.00,0.0,WeatherDisplay:10.37,2013-01-20 09:15:00,
2013-01-20 03:20:00,44.0,44.0,30.23,SE,146,7.0,7.0,100,0.00,CLR,,0.00,0.0,WeatherDisplay:10.37,2013-01-20 09:20:00,
2013-01-20 03:25:00,44.1,44.1,30.23,SSE,148,8.1,8.1,100,0.00,CLR,,0.00,2.0,WeatherDisplay:10.37,2013-01-20 09:25:00,
2013-01-20 03:30:00,44.1,44.1,30.23,SSE,147,7.0,8.0,100,0.00,CLR,,0.00,0.0,WeatherDisplay:10.37,2013-01-20 09:30:00,
2013-01-20 03:35:00,44.3,44.3,30.23,SSE,147,6.0,8.0,100,0.00,CLR,,0.00,0.0,WeatherDisplay:10.37,2013-01-20 09:35:00,
2013-01-20 03:40:00,44.1,44.1,30.23,SE,146,6.0,7.0,100,0.00,CLR,,0.00,0.0,WeatherDisplay:10.37,2013-01-20 09:40:00,
2013-01-20 03:45:00,44.2,44.2,30.23,SE,146,6.0,7.0,100,0.00,CLR,,0.00,0.0,WeatherDisplay:10.37,2013-01-20 09:45:00,
2013-01-20 03:50:00,44.3,44.3,30.23,SSE,147,6.0,7.0,100,0.00,CLR,,0.00,0.0,WeatherDisplay:10.37,2013-01-20 09:50:00,
2013-01-20 03:55:00,44.4,44.4,30.23,SE,146,5.0,8.0,100,0.00,CLR,,0.00,0.0,WeatherDisplay:10.37,2013-01-20 09:55:00,
2013-01-20 04:00:00,44.2,44.2,30.23,SE,143,6.0,8.0,100,0.00,CLR,,0.00,0.0,WeatherDisplay:10.37,2013-01-20 10:00:00,
2013-01-20 04:05:00,44.1,44.1,30.23,SE,142,7.0,8.0,100,0.00,CLR,,0.00,0.0,WeatherDisplay:10.37,2013-01-20 10:05:00,
2013-01-20 04:10:00,44.3,44.3,30.22,SSE,149,9.3,9.3,100,0.00,CLR,,0.00,1.0,WeatherDisplay:10.37,2013-01-20 10:10:00,
2013-01-20 04:15:00,44.3,44.3,30.23,SSE,148,7.0,9.0,100,0.00,CLR,,0.00,0.0,WeatherDisplay:10.37,2013-01-20 10:15:00,
2013-01-20 04:20:00,44.2,44.2,30.23,SSE,148,7.0,8.0,100,0.00,CLR,,0.00,0.0,WeatherDisplay:10.37,2013-01-20 10:20:00,
2013-01-20 04:25:00,43.8,43.8,30.23,SE,144,6.0,9.0,100,0.00,CLR,,0.00,0.0,WeatherDisplay:10.37,2013-01-20 10:25:00,
2013-01-20 04:30:00,43.7,43.7,30.22,SE,139,6.0,7.0,100,0.00,CLR,,0.00,0.0,WeatherDisplay:10.37,2013-01-20 10:30:00,
2013-01-20 04:35:00,43.3,43.3,30.22,SE,133,5.0,7.0,100,0.00,CLR,,0.00,0.0,WeatherDisplay:10.37,2013-01-20 10:35:00,
2013-01-20 04:40:00,43.8,43.8,30.22,SE,132,6.0,9.0,100,0.00,,,0.00,0.0,WeatherDisplay:10.37,2013-01-20 10:40:00,
2013-01-20 04:45:00,43.7,43.7,30.22,SE,135,5.0,7.0,100,0.00,,,0.00,0.0,WeatherDisplay:10.37,2013-01-20 10:45:00,
2013-01-20 04:50:00,43.6,43.6,30.22,SE,136,6.0,8.0,100,0.00,,,0.00,0.0,WeatherDisplay:10.37,2013-01-20 10:50:00,
2013-01-20 04:55:00,43.3,43.3,30.22,SE,133,5.0,7.0,100,0.00,CLR,,0.00,0.0,WeatherDisplay:10.37,2013-01-20 10:55:00,
2013-01-20 05:00:00,43.1,43.1,30.22,SE,126,5.0,6.0,100,0.00,,,0.00,0.0,WeatherDisplay:10.37,2013-01-20 11:00:00,
2013-01-20 05:05:00,43.1,43.1,30.22,SE,125,5.0,6.0,100,0.00,,,0.00,0.0,WeatherDisplay:10.37,2013-01-20 11:05:00,
2013-01-20 05:10:00,42.6,42.6,30.22,SE,125,6.0,6.0,100,0.00,,,0.00,0.0,WeatherDisplay:10.37,2013-01-20 11:10:00,
2013-01-20 05:15:00,42.9,42.9,30.22,SE,125,6.0,7.0,100,0.00,,,0.00,0.0,WeatherDisplay:10.37,2013-01-20 11:15:00,
2013-01-20 05:20:00,42.8,42.8,30.22,SE,127,5.0,6.0,100,0.00,,,0.00,0.0,WeatherDisplay:10.37,2013-01-20 11:20:00,
2013-01-20 05:25:00,42.6,42.6,30.22,SE,128,5.0,7.0,100,0.00,,,0.00,0.0,WeatherDisplay:10.37,2013-01-20 11:25:00,
2013-01-20 05:30:00,42.5,42.5,30.22,SE,130,6.0,7.0,100,0.00,,,0.00,0.0,WeatherDisplay:10.37,2013-01-20 11:30:00,
2013-01-20 05:35:00,42.5,42.5,30.22,SE,132,6.9,6.9,100,0.00,CLR,,0.00,1.0,WeatherDisplay:10.37,2013-01-20 11:35:00,
2013-01-20 05:40:00,42.6,42.6,30.22,SE,134,6.0,8.0,100,0.00,CLR,,0.00,0.0,WeatherDisplay:10.37,2013-01-20 11:40:00,
2013-01-20 05:45:00,42.5,42.5,30.22,SE,133,5.0,7.0,100,0.00,CLR,,0.00,0.0,WeatherDisplay:10.37,2013-01-20 11:45:00,
2013-01-20 05:50:00,42.0,42.0,30.22,SE,128,5.0,6.0,100,0.00,,,0.00,0.0,WeatherDisplay:10.37,2013-01-20 11:50:00,
2013-01-20 05:55:00,42.4,42.4,30.22,SE,126,5.0,5.0,100,0.00,,,0.00,0.0,WeatherDisplay:10.37,2013-01-20 11:55:00,
2013-01-20 06:00:00,42.5,42.5,30.22,SE,127,5.0,5.0,100,0.00,,,0.00,0.0,WeatherDisplay:10.37,2013-01-20 12:00:00,
2013-01-20 06:05:00,42.2,42.2,30.22,ESE,123,5.0,6.0,100,0.00,,,0.00,0.0,WeatherDisplay:10.37,2013-01-20 12:05:00,
2013-01-20 06:10:00,42.5,42.5,30.22,ESE,118,3.0,6.0,100,0.00,,,0.00,0.0,WeatherDisplay:10.37,2013-01-20 12:10:00,
2013-01-20 06:15:00,42.5,42.5,30.22,SE,125,3.5,3.5,100,0.00,,,0.00,1.0,WeatherDisplay:10.37,2013-01-20 12:15:00,
2013-01-20 06:20:00,42.7,42.7,30.23,SE,126,5.0,5.0,100,0.00,,,0.00,0.0,WeatherDisplay:10.37,2013-01-20 12:20:00,
2013-01-20 06:25:00,42.4,42.4,30.23,SE,130,5.0,5.0,100,0.00,,,0.00,0.0,WeatherDisplay:10.37,2013-01-20 12:25:00,
2013-01-20 06:30:00,42.2,42.2,30.23,SE,132,6.0,6.0,100,0.00,,,0.00,0.0,WeatherDisplay:10.37,2013-01-20 12:30:00,
2013-01-20 06:35:00,42.1,42.1,30.23,SE,133,5.0,6.0,100,0.00,,,0.00,0.0,WeatherDisplay:10.37,2013-01-20 12:35:00,
2013-01-20 06:40:00,42.2,42.2,30.23,SE,133,5.0,6.0,100,0.00,,,0.00,0.0,WeatherDisplay:10.37,2013-01-20 12:40:00,
2013-01-20 06:45:00,42.3,42.3,30.23,SE,134,5.0,6.0,100,0.00,,,0.00,0.0,WeatherDisplay:10.37,2013-01-20 12:45:00,
2013-01-20 06:50:00,42.3,42.3,30.23,SE,133,3.0,6.0,100,0.00,,,0.00,0.0,WeatherDisplay:10.37,2013-01-20 12:50:00,
2013-01-20 06:55:00,41.8,41.8,30.23,SE,128,3.0,5.0,100,0.00,,,0.00,0.0,WeatherDisplay:10.37,2013-01-20 12:55:00,
2013-01-20 07:00:00,41.9,41.9,30.23,SE,127,3.0,5.0,100,0.00,OVC,,0.00,1.0,WeatherDisplay:10.37,2013-01-20 13:00:00,
2013-01-20 07:05:00,41.8,41.8,30.23,SE,133,6.0,7.0,100,0.00,OVC,,0.00,1.0,WeatherDisplay:10.37,2013-01-20 13:05:00,
2013-01-20 07:10:00,41.8,41.8,30.24,SE,135,6.9,6.9,100,0.00,OVC,,0.00,2.0,WeatherDisplay:10.37,2013-01-20 13:10:00,
2013-01-20 07:15:00,41.8,41.8,30.24,SE,136,5.0,6.0,100,0.00,OVC,,0.00,3.0,WeatherDisplay:10.37,2013-01-20 13:15:00,
2013-01-20 07:20:00,41.5,41.5,30.23,SE,130,3.0,6.0,100,0.00,OVC,,0.00,4.0,WeatherDisplay:10.37,2013-01-20 13:20:00,
2013-01-20 07:25:00,41.8,41.8,30.23,SE,127,3.0,6.0,100,0.00,OVC,,0.00,6.0,WeatherDisplay:10.37,2013-01-20 13:25:00,
2013-01-20 07:30:00,41.9,41.9,30.23,SE,129,3.0,5.0,100,0.00,OVC,,0.00,9.0,WeatherDisplay:10.37,2013-01-20 13:30:00,
2013-01-20 07:35:00,41.9,41.9,30.23,SE,130,5.0,6.0,100,0.00,OVC,,0.00,13.0,WeatherDisplay:10.37,2013-01-20 13:35:00,
2013-01-20 07:40:00,41.9,41.9,30.23,SE,134,6.9,6.9,100,0.00,OVC,,0.00,17.0,WeatherDisplay:10.37,2013-01-20 13:40:00,
2013-01-20 07:45:00,41.5,41.5,30.23,SE,143,6.9,6.9,100,0.00,OVC,,0.00,20.0,WeatherDisplay:10.37,2013-01-20 13:45:00,
2013-01-20 07:50:00,41.8,41.8,30.23,SE,131,6.9,6.9,100,0.00,OVC,,0.00,24.0,WeatherDisplay:10.37,2013-01-20 13:50:00,
2013-01-20 07:55:00,41.8,41.8,30.23,ESE,120,4.6,4.6,100,0.00,OVC,,0.00,28.0,WeatherDisplay:10.37,2013-01-20 13:55:00,
2013-01-20 08:01:00,42.5,42.5,30.23,SE,131,5.8,5.8,100,0.00,OVC,,0.00,48.0,WeatherDisplay:10.37,2013-01-20 14:01:00,
2013-01-20 08:06:00,42.7,42.7,30.23,SE,129,4.6,4.6,100,0.00,OVC,,0.00,38.0,WeatherDisplay:10.37,2013-01-20 14:06:00,
2013-01-20 08:11:00,42.9,42.9,30.23,SE,128,4.6,4.6,100,0.00,OVC,,0.00,63.0,WeatherDisplay:10.37,2013-01-20 14:11:00,
2013-01-20 08:16:00,43.0,43.0,30.23,ESE,123,4.6,4.6,100,0.00,OVC,,0.00,215.0,WeatherDisplay:10.37,2013-01-20 14:16:00,
2013-01-20 08:21:00,43.4,43.4,30.23,SE,129,5.8,5.8,100,0.00,OVC,,0.00,241.0,WeatherDisplay:10.37,2013-01-20 14:21:00,
2013-01-20 08:27:00,43.7,43.7,30.23,ESE,106,5.1,5.1,100,0.00,OVC,,0.00,257.0,WeatherDisplay:10.37,2013-01-20 14:27:00,
2013-01-20 08:32:00,44.3,44.3,30.23,SE,129,4.6,4.6,100,0.00,OVC,,0.00,271.0,WeatherDisplay:10.37,2013-01-20 14:32:00,
2013-01-20 08:37:00,44.9,44.9,30.23,SE,124,4.6,4.6,100,0.00,OVC,,0.00,291.0,WeatherDisplay:10.37,2013-01-20 14:37:00,
2013-01-20 08:43:00,45.5,45.5,30.23,SE,128,4.6,4.6,100,0.00,OVC,,0.00,308.0,WeatherDisplay:10.37,2013-01-20 14:43:00,
2013-01-20 08:48:00,45.8,45.8,30.24,SSE,149,6.9,6.9,100,0.00,OVC,,0.00,323.0,WeatherDisplay:10.37,2013-01-20 14:48:00,
2013-01-20 08:53:00,46.4,46.4,30.24,SE,131,6.9,6.9,100,0.00,OVC,,0.00,337.0,WeatherDisplay:10.37,2013-01-20 14:53:00,
2013-01-20 08:58:00,46.7,46.7,30.24,SE,144,5.8,5.8,100,0.00,OVC,,0.00,351.0,WeatherDisplay:10.37,2013-01-20 14:58:00,
2013-01-20 09:03:00,47.8,47.8,30.24,SSE,158,5.8,5.8,100,0.00,OVC,,0.00,365.0,WeatherDisplay:10.37,2013-01-20 15:03:00,
2013-01-20 09:08:00,48.2,48.2,30.24,SE,143,5.8,5.8,100,0.00,OVC,,0.00,378.0,WeatherDisplay:10.37,2013-01-20 15:08:00,
2013-01-20 09:14:00,48.3,48.3,30.24,SSE,150,8.1,8.1,100,0.00,OVC,,0.00,392.0,WeatherDisplay:10.37,2013-01-20 15:14:00,
2013-01-20 09:19:00,48.8,48.8,30.25,SSE,161,8.1,8.1,100,0.00,OVC,,0.00,407.0,WeatherDisplay:10.37,2013-01-20 15:19:00,
2013-01-20 09:24:00,49.2,49.2,30.24,SSE,155,6.9,6.9,100,0.00,OVC,,0.00,420.0,WeatherDisplay:10.37,2013-01-20 15:24:00,
2013-01-20 09:29:00,49.5,49.5,30.24,SSE,156,8.1,8.1,100,0.00,OVC,,0.00,430.0,WeatherDisplay:10.37,2013-01-20 15:29:00,
2013-01-20 09:34:00,50.3,50.3,30.25,SSE,164,8.1,8.1,100,0.00,OVC,,0.00,443.0,WeatherDisplay:10.37,2013-01-20 15:34:00,
2013-01-20 09:40:00,50.6,50.6,30.25,SSE,165,6.0,9.0,100,0.00,OVC,,0.00,455.0,WeatherDisplay:10.37,2013-01-20 15:40:00,
2013-01-20 09:45:00,51.6,51.6,30.25,SSE,163,3.0,8.0,100,0.00,OVC,,0.00,467.0,WeatherDisplay:10.37,2013-01-20 15:45:00,
2013-01-20 09:50:00,52.7,52.7,30.25,SSE,157,5.0,8.0,100,0.00,OVC,,0.00,478.0,WeatherDisplay:10.37,2013-01-20 15:50:00,
2013-01-20 09:55:00,53.0,53.0,30.25,SSE,164,6.0,8.0,100,0.00,OVC,,0.00,489.0,WeatherDisplay:10.37,2013-01-20 15:55:00,
2013-01-20 10:00:00,53.7,53.7,30.25,SSE,157,6.0,7.0,100,0.00,OVC,,0.00,499.0,WeatherDisplay:10.37,2013-01-20 16:00:00,
2013-01-20 10:05:00,54.1,54.1,30.25,SE,146,5.0,6.0,100,0.00,OVC,,0.00,511.0,WeatherDisplay:10.37,2013-01-20 16:05:00,
2013-01-20 10:10:00,54.7,54.4,30.25,SE,143,4.6,4.6,99,0.00,OVC,,0.00,519.0,WeatherDisplay:10.37,2013-01-20 16:10:00,
2013-01-20 10:15:00,55.0,53.9,30.26,SE,138,5.0,7.0,96,0.00,OVC,,0.00,529.0,WeatherDisplay:10.37,2013-01-20 16:15:00,
2013-01-20 10:20:00,54.3,53.7,30.25,SSE,157,5.0,8.0,98,0.00,OVC,,0.00,537.0,WeatherDisplay:10.37,2013-01-20 16:20:00,
2013-01-20 10:25:00,55.4,53.7,30.25,SSE,165,6.0,8.0,94,0.00,OVC,,0.00,547.0,WeatherDisplay:10.37,2013-01-20 16:25:00,
2013-01-20 10:30:00,56.0,53.4,30.25,SSE,163,6.9,6.9,91,0.00,OVC,,0.00,554.0,WeatherDisplay:10.37,2013-01-20 16:30:00,
2013-01-20 10:35:00,57.3,54.7,30.25,SSE,154,3.0,8.0,91,0.00,OVC,,0.00,562.0,WeatherDisplay:10.37,2013-01-20 16:35:00,
2013-01-20 10:40:00,56.9,54.3,30.25,SSE,154,5.0,9.0,91,0.00,OVC,,0.00,569.0,WeatherDisplay:10.37,2013-01-20 16:40:00,
2013-01-20 10:45:00,58.1,54.9,30.25,SSE,156,3.0,7.0,89,0.00,OVC,,0.00,576.0,WeatherDisplay:10.37,2013-01-20 16:45:00,
2013-01-20 10:50:00,57.3,54.1,30.25,SSE,160,6.0,10.0,89,0.00,OVC,,0.00,583.0,WeatherDisplay:10.37,2013-01-20 16:50:00,
2013-01-20 10:55:00,57.8,53.7,30.25,South,169,7.0,10.0,86,0.00,OVC,,0.00,589.0,WeatherDisplay:10.37,2013-01-20 16:55:00,
2013-01-20 11:00:00,58.3,54.1,30.25,SSW,195,8.1,8.1,86,0.00,OVC,,0.00,594.0,WeatherDisplay:10.37,2013-01-20 17:00:00,
2013-01-20 11:05:00,58.6,54.4,30.25,South,174,6.0,10.0,86,0.00,OVC,,0.00,600.0,WeatherDisplay:10.37,2013-01-20 17:05:00,
2013-01-20 11:10:00,59.1,53.9,30.25,South,175,6.0,12.0,83,0.00,OVC,,0.00,605.0,WeatherDisplay:10.37,2013-01-20 17:10:00,
2013-01-20 11:15:00,59.4,54.3,30.25,SSE,168,5.0,8.0,83,0.00,OVC,,0.00,609.0,WeatherDisplay:10.37,2013-01-20 17:15:00,
2013-01-20 11:20:00,59.4,54.2,30.25,South,184,8.1,8.1,83,0.00,OVC,,0.00,615.0,WeatherDisplay:10.37,2013-01-20 17:20:00,
2013-01-20 11:25:00,59.7,53.8,30.24,South,169,7.0,12.0,81,0.00,OVC,,0.00,620.0,WeatherDisplay:10.37,2013-01-20 17:25:00,
2013-01-20 11:30:00,60.0,52.8,30.24,South,175,10.4,10.4,77,0.00,OVC,,0.00,623.0,WeatherDisplay:10.37,2013-01-20 17:30:00,
2013-01-20 11:35:00,59.7,53.2,30.24,SSE,161,9.0,12.0,79,0.00,OVC,,0.00,627.0,WeatherDisplay:10.37,2013-01-20 17:35:00,
2013-01-20 11:40:00,60.1,53.9,30.24,SSE,163,8.0,12.0,80,0.00,OVC,,0.00,631.0,WeatherDisplay:10.37,2013-01-20 17:40:00,
2013-01-20 11:45:00,60.7,53.8,30.23,SSE,152,9.0,12.0,78,0.00,OVC,,0.00,635.0,WeatherDisplay:10.37,2013-01-20 17:45:00,
2013-01-20 11:50:00,61.6,53.6,30.23,SE,139,8.0,12.0,75,0.00,OVC,,0.00,636.0,WeatherDisplay:10.37,2013-01-20 17:50:00,
2013-01-20 11:55:00,61.3,53.3,30.23,SSE,149,8.0,14.0,75,0.00,OVC,,0.00,640.0,WeatherDisplay:10.37,2013-01-20 17:55:00,
2013-01-20 12:00:00,61.2,52.8,30.22,SSE,163,12.0,14.0,74,0.00,OVC,,0.00,642.0,WeatherDisplay:10.37,2013-01-20 18:00:00,
2013-01-20 12:05:00,61.6,52.8,30.22,SSE,160,8.0,15.0,73,0.00,OVC,,0.00,639.0,WeatherDisplay:10.37,2013-01-20 18:05:00,
2013-01-20 12:10:00,61.9,53.9,30.22,SSE,153,7.0,15.0,75,0.00,OVC,,0.00,642.0,WeatherDisplay:10.37,2013-01-20 18:10:00,
2013-01-20 12:15:00,62.3,53.2,30.21,SE,135,11.5,11.5,72,0.00,OVC,,0.00,645.0,WeatherDisplay:10.37,2013-01-20 18:15:00,
2013-01-20 12:20:00,62.8,54.0,30.21,SSE,150,6.0,13.0,73,0.00,OVC,,0.00,647.0,WeatherDisplay:10.37,2013-01-20 18:20:00,
2013-01-20 12:25:00,62.7,53.5,30.20,SSE,161,9.0,15.0,72,0.00,OVC,,0.00,646.0,WeatherDisplay:10.37,2013-01-20 18:25:00,
2013-01-20 12:30:00,63.5,53.2,30.20,South,175,12.0,20.0,69,0.00,OVC,,0.00,644.0,WeatherDisplay:10.37,2013-01-20 18:30:00,
2013-01-20 12:35:00,63.3,51.8,30.20,South,175,12.0,17.0,66,0.00,OVC,,0.00,643.0,WeatherDisplay:10.37,2013-01-20 18:35:00,
2013-01-20 12:40:00,63.7,52.5,30.19,SSE,161,9.0,16.0,67,0.00,OVC,,0.00,640.0,WeatherDisplay:10.37,2013-01-20 18:40:00,
2013-01-20 12:45:00,63.2,51.6,30.19,SSE,162,9.0,17.0,66,0.00,OVC,,0.00,639.0,WeatherDisplay:10.37,2013-01-20 18:45:00,
2013-01-20 12:50:00,63.6,52.0,30.19,South,170,7.0,15.0,66,0.00,OVC,,0.00,635.0,WeatherDisplay:10.37,2013-01-20 18:50:00,
2013-01-20 12:55:00,64.6,52.9,30.18,SSE,166,10.0,15.0,66,0.00,OVC,,0.00,636.0,WeatherDisplay:10.37,2013-01-20 18:55:00,
2013-01-20 13:00:00,64.9,53.3,30.18,South,174,8.0,15.0,66,0.00,OVC,,0.00,631.0,WeatherDisplay:10.37,2013-01-20 19:00:00,
2013-01-20 13:05:00,64.4,52.0,30.18,South,173,10.0,15.0,64,0.00,OVC,,0.00,623.0,WeatherDisplay:10.37,2013-01-20 19:05:00,
2013-01-20 13:10:00,66.0,53.9,30.17,South,187,13.8,13.8,65,0.00,OVC,,0.00,624.0,WeatherDisplay:10.37,2013-01-20 19:10:00,
2013-01-20 13:15:00,65.4,52.0,30.17,South,178,15.0,18.0,62,0.00,OVC,,0.00,618.0,WeatherDisplay:10.37,2013-01-20 19:15:00,
2013-01-20 13:20:00,65.8,52.4,30.17,South,184,13.0,16.0,62,0.00,OVC,,0.00,615.0,WeatherDisplay:10.37,2013-01-20 19:20:00,
2013-01-20 13:25:00,66.2,52.4,30.17,SSW,194,9.0,16.0,61,0.00,OVC,,0.00,610.0,WeatherDisplay:10.37,2013-01-20 19:25:00,
2013-01-20 13:30:00,66.3,51.6,30.16,South,191,13.0,19.0,59,0.00,CLR,,0.00,605.0,WeatherDisplay:10.37,2013-01-20 19:30:00,
2013-01-20 13:35:00,66.2,51.4,30.16,SSW,194,9.0,17.0,59,0.00,CLR,,0.00,599.0,WeatherDisplay:10.37,2013-01-20 19:35:00,
2013-01-20 13:40:00,66.2,51.5,30.16,SSW,197,9.0,16.0,59,0.00,CLR,,0.00,592.0,WeatherDisplay:10.37,2013-01-20 19:40:00,
2013-01-20 13:45:00,66.9,52.1,30.16,SSW,192,7.0,16.0,59,0.00,CLR,,0.00,587.0,WeatherDisplay:10.37,2013-01-20 19:45:00,
2013-01-20 13:50:00,66.5,51.3,30.15,SSW,197,8.0,13.0,58,0.00,CLR,,0.00,581.0,WeatherDisplay:10.37,2013-01-20 19:50:00,
2013-01-20 13:55:00,66.8,51.0,30.15,South,191,9.0,17.0,57,0.00,CLR,,0.00,574.0,WeatherDisplay:10.37,2013-01-20 19:55:00,
2013-01-20 14:00:00,67.0,50.8,30.15,South,185,15.0,20.0,56,0.00,CLR,,0.00,568.0,WeatherDisplay:10.37,2013-01-20 20:00:00,
2013-01-20 14:05:00,67.0,51.3,30.15,South,177,6.0,16.0,57,0.00,CLR,,0.00,560.0,WeatherDisplay:10.37,2013-01-20 20:05:00,
2013-01-20 14:10:00,66.5,51.3,30.15,South,179,9.0,21.0,58,0.00,CLR,,0.00,551.0,WeatherDisplay:10.37,2013-01-20 20:10:00,
2013-01-20 14:15:00,67.5,51.3,30.15,South,190,13.0,19.0,56,0.00,CLR,,0.00,543.0,WeatherDisplay:10.37,2013-01-20 20:15:00,
2013-01-20 14:20:00,67.2,51.4,30.15,SSW,197,10.0,14.0,57,0.00,CLR,,0.00,534.0,WeatherDisplay:10.37,2013-01-20 20:20:00,
2013-01-20 14:25:00,67.3,52.1,30.15,South,189,10.0,16.0,58,0.00,CLR,,0.00,525.0,WeatherDisplay:10.37,2013-01-20 20:25:00,
2013-01-20 14:30:00,67.8,52.4,30.14,South,185,9.0,16.0,58,0.00,CLR,,0.00,516.0,WeatherDisplay:10.37,2013-01-20 20:30:00,
2013-01-20 14:35:00,67.7,51.9,30.14,South,188,12.0,17.0,57,0.00,CLR,,0.00,505.0,WeatherDisplay:10.37,2013-01-20 20:35:00,
2013-01-20 14:40:00,68.3,52.5,30.14,SSW,196,15.0,15.0,57,0.00,CLR,,0.00,497.0,WeatherDisplay:10.37,2013-01-20 20:40:00,
2013-01-20 14:45:00,67.6,51.9,30.14,South,185,9.0,16.0,57,0.00,CLR,,0.00,486.0,WeatherDisplay:10.37,2013-01-20 20:45:00,
2013-01-20 14:50:00,68.1,51.8,30.14,South,187,10.0,19.0,56,0.00,CLR,,0.00,475.0,WeatherDisplay:10.37,2013-01-20 20:50:00,
2013-01-20 14:55:00,67.8,52.0,30.14,SSW,200,9.0,15.0,57,0.00,CLR,,0.00,465.0,WeatherDisplay:10.37,2013-01-20 20:55:00,
2013-01-20 15:00:00,68.0,52.2,30.13,SSW,198,8.0,13.0,57,0.00,CLR,,0.00,455.0,WeatherDisplay:10.37,2013-01-20 21:00:00,
2013-01-20 15:05:00,68.0,52.2,30.13,South,187,8.0,16.0,57,0.00,CLR,,0.00,444.0,WeatherDisplay:10.37,2013-01-20 21:05:00,
2013-01-20 15:10:00,67.6,51.8,30.13,South,175,8.0,14.0,57,0.00,CLR,,0.00,434.0,WeatherDisplay:10.37,2013-01-20 21:10:00,
2013-01-20 15:15:00,68.1,52.3,30.12,South,172,10.0,13.0,57,0.00,CLR,,0.00,424.0,WeatherDisplay:10.37,2013-01-20 21:15:00,
2013-01-20 15:20:00,68.2,51.9,30.12,SSW,207,16.2,16.2,56,0.00,CLR,,0.00,409.0,WeatherDisplay:10.37,2013-01-20 21:20:00,
2013-01-20 15:25:00,67.4,52.1,30.12,SSE,157,16.1,16.1,58,0.00,CLR,,0.00,399.0,WeatherDisplay:10.37,2013-01-20 21:25:00,
2013-01-20 15:30:00,67.6,51.8,30.12,SSE,161,16.1,16.1,57,0.00,CLR,,0.00,387.0,WeatherDisplay:10.37,2013-01-20 21:30:00,
2013-01-20 15:35:00,67.8,52.0,30.11,SSE,160,15.0,15.0,57,0.00,CLR,,0.00,374.0,WeatherDisplay:10.37,2013-01-20 21:35:00,
2013-01-20 15:41:00,68.1,51.8,30.11,South,169,15.0,15.0,56,0.00,CLR,,0.00,363.0,WeatherDisplay:10.37,2013-01-20 21:41:00,
2013-01-20 15:46:00,68.1,52.3,30.11,South,190,18.4,18.4,57,0.00,CLR,,0.00,350.0,WeatherDisplay:10.37,2013-01-20 21:46:00,
2013-01-20 15:51:00,67.6,51.8,30.11,South,176,17.3,17.3,57,0.00,FEW,,0.00,338.0,WeatherDisplay:10.37,2013-01-20 21:51:00,
2013-01-20 15:56:00,67.9,52.6,30.11,South,190,18.4,18.4,58,0.00,FEW,,0.00,326.0,WeatherDisplay:10.37,2013-01-20 21:56:00,
2013-01-20 16:01:00,67.8,52.5,30.11,SSE,167,15.0,15.0,58,0.00,FEW,,0.00,313.0,WeatherDisplay:10.37,2013-01-20 22:01:00,
2013-01-20 16:07:00,68.0,52.7,30.10,South,170,14.1,14.1,58,0.00,SCT,,0.00,299.0,WeatherDisplay:10.37,2013-01-20 22:07:00,
2013-01-20 16:12:00,67.7,52.9,30.11,South,191,13.8,13.8,59,0.00,SCT,,0.00,288.0,WeatherDisplay:10.37,2013-01-20 22:12:00,
2013-01-20 16:17:00,67.7,52.4,30.10,SSE,166,15.0,15.0,58,0.00,SCT,,0.00,273.0,WeatherDisplay:10.37,2013-01-20 22:17:00,
2013-01-20 16:22:00,67.9,52.1,30.11,South,172,16.2,16.2,57,0.00,SCT,,0.00,261.0,WeatherDisplay:10.37,2013-01-20 22:22:00,
2013-01-20 16:27:00,67.6,52.3,30.11,South,169,11.4,11.4,58,0.00,BKN,,0.00,248.0,WeatherDisplay:10.37,2013-01-20 22:27:00,
2013-01-20 16:32:00,67.8,52.0,30.11,South,181,11.5,11.5,57,0.00,BKN,,0.00,235.0,WeatherDisplay:10.37,2013-01-20 22:32:00,
2013-01-20 16:38:00,68.2,52.4,30.11,South,179,15.0,15.0,57,0.00,BKN,,0.00,222.0,WeatherDisplay:10.37,2013-01-20 22:38:00,
2013-01-20 16:43:00,67.9,52.1,30.11,SSE,148,13.8,13.8,57,0.00,BKN,,0.00,209.0,WeatherDisplay:10.37,2013-01-20 22:43:00,
2013-01-20 16:48:00,67.4,52.1,30.11,SSE,163,12.7,12.7,58,0.00,BKN,,0.00,195.0,WeatherDisplay:10.37,2013-01-20 22:48:00,
2013-01-20 16:53:00,67.4,52.6,30.11,South,181,10.4,10.4,59,0.00,OVC,,0.00,182.0,WeatherDisplay:10.37,2013-01-20 22:53:00,
2013-01-20 16:58:00,67.2,52.4,30.11,South,182,10.4,10.4,59,0.00,OVC,,0.00,169.0,WeatherDisplay:10.37,2013-01-20 22:58:00,
2013-01-20 17:03:00,67.0,52.2,30.11,South,182,9.3,9.3,59,0.00,OVC,,0.00,155.0,WeatherDisplay:10.37,2013-01-20 23:03:00,
2013-01-20 17:08:00,66.5,53.1,30.11,SSE,155,10.4,10.4,62,0.00,OVC,,0.00,141.0,WeatherDisplay:10.37,2013-01-20 23:08:00,
2013-01-20 17:13:00,66.0,53.5,30.11,SE,138,9.2,9.2,64,0.00,OVC,,0.00,127.0,WeatherDisplay:10.37,2013-01-20 23:13:00,
2013-01-20 17:19:00,65.6,53.5,30.12,SE,144,8.1,8.1,65,0.00,OVC,,0.00,110.0,WeatherDisplay:10.37,2013-01-20 23:19:00,
2013-01-20 17:24:00,65.0,53.4,30.11,SSE,147,9.2,9.2,66,0.00,OVC,,0.00,93.0,WeatherDisplay:10.37,2013-01-20 23:24:00,
2013-01-20 17:29:00,64.4,53.2,30.11,SE,141,5.8,5.8,67,0.00,OVC,,0.00,73.0,WeatherDisplay:10.37,2013-01-20 23:29:00,
2013-01-20 17:34:00,63.9,53.1,30.12,SE,136,4.6,4.6,68,0.00,OVC,,0.00,53.0,WeatherDisplay:10.37,2013-01-20 23:34:00,
2013-01-20 17:39:00,63.4,53.0,30.12,SE,128,3.5,3.5,69,0.00,OVC,,0.00,33.0,WeatherDisplay:10.37,2013-01-20 23:39:00,
2013-01-20 17:45:00,62.9,52.9,30.12,SE,130,2.0,5.0,70,0.00,OVC,,0.00,15.0,WeatherDisplay:10.37,2013-01-20 23:45:00,
2013-01-20 17:50:00,62.4,52.9,30.12,SE,131,3.0,5.0,71,0.00,OVC,,0.00,6.0,WeatherDisplay:10.37,2013-01-20 23:50:00,
2013-01-20 17:55:00,61.9,52.8,30.12,SE,132,3.0,5.0,72,0.00,OVC,,0.00,4.0,WeatherDisplay:10.37,2013-01-20 23:55:00,
2013-01-20 18:00:00,61.2,52.9,30.13,SE,127,3.0,4.0,74,0.00,CLR,,0.00,0.0,WeatherDisplay:10.37,2013-01-21 00:00:00,
2013-01-20 18:05:00,61.1,52.7,30.13,ESE,119,5.0,5.0,74,0.00,CLR,,0.00,0.0,WeatherDisplay:10.37,2013-01-21 00:05:00,
2013-01-20 18:10:00,61.0,53.0,30.13,ESE,116,5.0,5.0,75,0.00,CLR,,0.00,0.0,WeatherDisplay:10.37,2013-01-21 00:10:00,
2013-01-20 18:15:00,60.9,52.6,30.13,ESE,117,3.0,5.0,74,0.00,CLR,,0.00,0.0,WeatherDisplay:10.37,2013-01-21 00:15:00,
2013-01-20 18:20:00,60.3,52.3,30.13,ESE,120,3.0,5.0,75,0.00,CLR,,0.00,0.0,WeatherDisplay:10.37,2013-01-21 00:20:00,
2013-01-20 18:25:00,60.3,52.3,30.13,ESE,123,2.0,4.0,75,0.00,CLR,,0.00,0.0,WeatherDisplay:10.37,2013-01-21 00:25:00,
2013-01-20 18:30:00,60.4,52.4,30.13,SE,125,2.0,4.0,75,0.00,CLR,,0.00,0.0,WeatherDisplay:10.37,2013-01-21 00:30:00,
2013-01-20 18:35:00,60.7,52.4,30.13,SE,129,2.0,5.0,74,0.00,CLR,,0.00,0.0,WeatherDisplay:10.37,2013-01-21 00:35:00,
2013-01-20 18:40:00,59.9,52.0,30.13,SE,136,2.0,5.0,75,0.00,CLR,,0.00,0.0,WeatherDisplay:10.37,2013-01-21 00:40:00,
2013-01-20 18:45:00,59.8,52.2,30.13,SE,143,6.0,6.0,76,0.00,CLR,,0.00,0.0,WeatherDisplay:10.37,2013-01-21 00:45:00,
2013-01-20 18:50:00,60.5,52.2,30.13,SE,145,6.0,7.0,74,0.00,CLR,,0.00,0.0,WeatherDisplay:10.37,2013-01-21 00:50:00,
2013-01-20 18:55:00,60.5,51.8,30.13,SSE,149,6.0,7.0,73,0.00,CLR,,0.00,0.0,WeatherDisplay:10.37,2013-01-21 00:55:00,
2013-01-20 19:00:00,59.8,51.9,30.13,SSE,151,7.0,8.0,75,0.00,CLR,,0.00,0.0,WeatherDisplay:10.37,2013-01-21 01:00:00,
2013-01-20 19:05:00,59.3,51.7,30.13,SSE,150,9.2,9.2,76,0.00,CLR,,0.00,1.0,WeatherDisplay:10.37,2013-01-21 01:05:00,
2013-01-20 19:10:00,59.1,51.5,30.13,SSE,149,8.0,8.0,76,0.00,CLR,,0.00,0.0,WeatherDisplay:10.37,2013-01-21 01:10:00,
2013-01-20 19:15:00,58.6,51.4,30.14,SE,146,7.0,8.0,77,0.00,CLR,,0.00,0.0,WeatherDisplay:10.37,2013-01-21 01:15:00,
2013-01-20 19:20:00,57.7,51.3,30.14,SE,143,6.0,6.0,79,0.00,CLR,,0.00,0.0,WeatherDisplay:10.37,2013-01-21 01:20:00,
2013-01-20 19:25:00,57.4,51.3,30.14,SE,145,6.0,6.0,80,0.00,CLR,,0.00,0.0,WeatherDisplay:10.37,2013-01-21 01:25:00,
2013-01-20 19:30:00,58.1,51.6,30.14,SSE,152,5.0,6.0,79,0.00,CLR,,0.00,0.0,WeatherDisplay:10.37,2013-01-21 01:30:00,
2013-01-20 19:35:00,58.3,51.1,30.14,SSE,162,6.0,6.0,77,0.00,CLR,,0.00,0.0,WeatherDisplay:10.37,2013-01-21 01:35:00,
2013-01-20 19:40:00,58.2,50.7,30.14,SSE,167,5.0,7.0,76,0.00,CLR,,0.00,0.0,WeatherDisplay:10.37,2013-01-21 01:40:00,
2013-01-20 19:45:00,57.7,50.9,30.14,SSE,161,5.0,6.0,78,0.00,CLR,,0.00,0.0,WeatherDisplay:10.37,2013-01-21 01:45:00,
2013-01-20 19:50:00,57.2,50.7,30.14,SSE,157,6.0,6.0,79,0.00,CLR,,0.00,0.0,WeatherDisplay:10.37,2013-01-21 01:50:00,
2013-01-20 19:55:00,56.9,50.4,30.14,SSE,160,7.0,8.0,79,0.00,CLR,,0.00,0.0,WeatherDisplay:10.37,2013-01-21 01:55:00,
2013-01-20 20:00:00,56.9,50.4,30.14,SSE,159,7.0,9.0,79,0.00,CLR,,0.00,0.0,WeatherDisplay:10.37,2013-01-21 02:00:00,
2013-01-20 20:05:00,56.9,50.5,30.13,SSE,162,8.0,9.0,79,0.00,CLR,,0.00,0.0,WeatherDisplay:10.37,2013-01-21 02:05:00,
2013-01-20 20:10:00,56.8,50.4,30.14,SSE,162,8.1,8.1,79,0.00,CLR,,0.00,1.0,WeatherDisplay:10.37,2013-01-21 02:10:00,
2013-01-20 20:15:00,56.5,50.4,30.13,SSE,158,8.1,8.1,80,0.00,CLR,,0.00,1.0,WeatherDisplay:10.37,2013-01-21 02:15:00,
2013-01-20 20:20:00,56.5,50.7,30.14,SSE,161,8.1,8.1,81,0.00,CLR,,0.00,1.0,WeatherDisplay:10.37,2013-01-21 02:20:00,
2013-01-20 20:25:00,56.5,50.7,30.14,SSE,160,8.1,8.1,81,0.00,CLR,,0.00,1.0,WeatherDisplay:10.37,2013-01-21 02:25:00,
2013-01-20 20:31:00,56.0,50.6,30.14,SE,145,6.9,6.9,82,0.00,CLR,,0.00,1.0,WeatherDisplay:10.37,2013-01-21 02:31:00,
2013-01-20 20:36:00,55.3,50.5,30.14,SSE,152,6.9,6.9,84,0.00,CLR,,0.00,1.0,WeatherDisplay:10.37,2013-01-21 02:36:00,
2013-01-20 20:42:00,55.9,50.8,30.14,SSE,163,5.8,5.8,83,0.00,CLR,,0.00,1.0,WeatherDisplay:10.37,2013-01-21 02:42:00,
2013-01-20 20:47:00,56.0,50.9,30.14,South,172,7.5,7.5,83,0.00,CLR,,0.00,1.0,WeatherDisplay:10.37,2013-01-21 02:47:00,
2013-01-20 20:52:00,56.5,51.1,30.14,South,178,8.4,8.4,82,0.00,CLR,,0.00,2.0,WeatherDisplay:10.37,2013-01-21 02:52:00,
2013-01-20 20:57:00,56.4,50.6,30.14,South,171,9.2,9.2,81,0.00,CLR,,0.00,2.0,WeatherDisplay:10.37,2013-01-21 02:57:00,
2013-01-20 21:02:00,56.2,50.4,30.14,South,189,9.2,9.2,81,0.00,CLR,,0.00,1.0,WeatherDisplay:10.37,2013-01-21 03:02:00,
2013-01-20 21:08:00,56.1,50.7,30.15,South,172,10.4,10.4,82,0.00,CLR,,0.00,1.0,WeatherDisplay:10.37,2013-01-21 03:08:00,
2013-01-20 21:13:00,56.2,50.8,30.14,South,175,9.2,9.2,82,0.00,CLR,,0.00,1.0,WeatherDisplay:10.37,2013-01-21 03:13:00,
2013-01-20 21:18:00,56.0,50.3,30.14,South,177,8.1,8.1,81,0.00,CLR,,0.00,2.0,WeatherDisplay:10.37,2013-01-21 03:18:00,
2013-01-20 21:23:00,55.7,50.3,30.15,South,182,6.9,6.9,82,0.00,CLR,,0.00,1.0,WeatherDisplay:10.37,2013-01-21 03:23:00,
2013-01-20 21:28:00,55.3,50.2,30.15,South,186,6.0,6.0,83,0.00,CLR,,0.00,1.0,WeatherDisplay:10.37,2013-01-21 03:28:00,
2013-01-20 21:33:00,55.0,50.3,30.15,South,180,5.8,5.8,84,0.00,CLR,,0.00,2.0,WeatherDisplay:10.37,2013-01-21 03:33:00,
2013-01-20 21:38:00,55.0,50.3,30.15,SSE,166,5.8,5.8,84,0.00,CLR,,0.00,2.0,WeatherDisplay:10.37,2013-01-21 03:38:00,
2013-01-20 21:43:00,54.8,50.1,30.15,SSE,149,6.0,6.0,84,0.00,CLR,,0.00,1.0,WeatherDisplay:10.37,2013-01-21 03:43:00,
2013-01-20 21:49:00,54.3,50.5,30.15,SSE,165,6.9,6.9,87,0.00,CLR,,0.00,2.0,WeatherDisplay:10.37,2013-01-21 03:49:00,
2013-01-20 21:54:00,54.9,50.8,30.15,SSE,163,5.8,5.8,86,0.00,CLR,,0.00,2.0,WeatherDisplay:10.37,2013-01-21 03:54:00,
2013-01-20 21:59:00,53.1,49.9,30.16,SSE,159,4.6,4.6,89,0.00,CLR,,0.00,2.0,WeatherDisplay:10.37,2013-01-21 03:59:00,
2013-01-20 22:04:00,53.5,50.9,30.16,SSE,147,4.6,4.6,91,0.00,CLR,,0.00,1.0,WeatherDisplay:10.37,2013-01-21 04:04:00,
2013-01-20 22:09:00,54.3,51.1,30.16,South,172,4.6,4.6,89,0.00,CLR,,0.00,1.0,WeatherDisplay:10.37,2013-01-21 04:09:00,
2013-01-20 22:15:00,54.1,50.6,30.16,SSE,154,5.0,5.0,88,0.00,CLR,,0.00,0.0,WeatherDisplay:10.37,2013-01-21 04:15:00,
2013-01-20 22:20:00,53.7,50.5,30.16,SSE,147,5.0,5.0,89,0.00,CLR,,0.00,0.0,WeatherDisplay:10.37,2013-01-21 04:20:00,
2013-01-20 22:25:00,54.0,51.2,30.16,SSE,150,5.0,6.0,90,0.00,CLR,,0.00,0.0,WeatherDisplay:10.37,2013-01-21 04:25:00,
2013-01-20 22:30:00,53.9,51.1,30.16,SSE,157,5.0,6.0,90,0.00,CLR,,0.00,0.0,WeatherDisplay:10.37,2013-01-21 04:30:00,
2013-01-20 22:35:00,53.3,50.5,30.16,SSE,158,5.0,6.0,90,0.00,CLR,,0.00,0.0,WeatherDisplay:10.37,2013-01-21 04:35:00,
2013-01-20 22:40:00,52.9,50.9,30.16,SSE,158,6.0,7.0,93,0.00,CLR,,0.00,0.0,WeatherDisplay:10.37,2013-01-21 04:40:00,
2013-01-20 22:45:00,53.5,51.5,30.16,SSE,165,6.9,6.9,93,0.00,CLR,,0.00,1.0,WeatherDisplay:10.37,2013-01-21 04:45:00,
2013-01-20 22:50:00,53.8,51.5,30.16,South,178,8.1,8.1,92,0.00,CLR,,0.00,1.0,WeatherDisplay:10.37,2013-01-21 04:50:00,
2013-01-20 22:55:00,53.6,51.3,30.16,South,179,5.8,5.8,92,0.00,CLR,,0.00,1.0,WeatherDisplay:10.37,2013-01-21 04:55:00,
2013-01-20 23:00:00,53.1,51.1,30.16,SSE,147,4.6,4.6,93,0.00,CLR,,0.00,1.0,WeatherDisplay:10.37,2013-01-21 05:00:00,
2013-01-20 23:01:00,52.8,50.8,30.16,SSE,149,4.8,4.9,93,0.00,CLR,,0.00,1.0,WeatherDisplay:10.37,2013-01-21 05:01:00,
2013-01-20 23:03:00,52.5,50.8,30.16,SE,142,4.6,4.6,94,0.00,CLR,,0.00,1.0,WeatherDisplay:10.37,2013-01-21 05:03:00,
2013-01-20 23:08:00,52.8,51.7,30.16,SSE,157,6.9,6.9,96,0.00,CLR,,0.00,1.0,WeatherDisplay:10.37,2013-01-21 05:08:00,
2013-01-20 23:10:00,52.9,51.8,30.16,SSE,154,6.0,9.0,96,0.00,CLR,,0.00,0.0,WeatherDisplay:10.37,2013-01-21 05:10:00,
2013-01-20 23:15:00,53.4,52.0,30.16,SSE,162,5.0,8.0,95,0.00,CLR,,0.00,0.0,WeatherDisplay:10.37,2013-01-21 05:15:00,
2013-01-20 23:20:00,53.4,51.7,30.16,SSE,165,6.0,6.0,94,0.00,CLR,,0.00,0.0,WeatherDisplay:10.37,2013-01-21 05:20:00,
2013-01-20 23:25:00,53.3,51.6,30.16,SSE,167,5.8,5.8,94,0.00,CLR,,0.00,1.0,WeatherDisplay:10.37,2013-01-21 05:25:00,
2013-01-20 23:30:00,52.6,51.2,30.16,SSE,152,5.8,5.8,95,0.00,CLR,,0.00,1.0,WeatherDisplay:10.37,2013-01-21 05:30:00,
2013-01-20 23:35:00,52.0,50.9,30.16,SSE,148,5.8,5.8,96,0.00,CLR,,0.00,1.0,WeatherDisplay:10.37,2013-01-21 05:35:00,
2013-01-20 23:40:00,51.8,51.3,30.16,SSE,147,5.8,5.8,98,0.00,CLR,,0.00,1.0,WeatherDisplay:10.37,2013-01-21 05:40:00,
2013-01-20 23:45:00,51.8,51.5,30.16,SE,145,5.8,5.8,99,0.00,CLR,,0.00,2.0,WeatherDisplay:10.37,2013-01-21 05:45:00,
2013-01-20 23:50:00,51.5,51.0,30.16,SE,135,5.8,5.8,98,0.00,CLR,,0.00,1.0,WeatherDisplay:10.37,2013-01-21 05:50:00,
2013-01-20 23:55:00,51.1,51.1,30.16,SE,129,3.5,3.5,100,0.00,CLR,,0.00,1.0,WeatherDisplay:10.37,2013-01-21 05:55:00,